Pellston, MI

9:38 AM EDT on August 22, 2017 (GMT -0400)
Pellston Regional Airport Of Emmet County

Weather History for KPLN - December, 2012

Change the Weather History Date:

Monday, December 17, 2012

  Actual Average Record
Temperature  
Mean Temperature 34 °F -  
Max Temperature 39 °F 30 °F 44 °F (2006)
Min Temperature 28 °F 14 °F -20 °F (1980)
Degree Days  
Heating Degree Days 32    
Moisture  
Dew Point 34 °F    
Average Humidity 92    
Maximum Humidity 100    
Minimum Humidity 81    
Precipitation  
Precipitation 0.01 in - - ()
Sea Level Pressure  
Sea Level Pressure 29.64 in    
Wind  
Wind Speed 5 mph (WNW)    
Max Wind Speed 12 mph    
Max Gust Speed -    
Visibility 10 miles    
Events Rain    
Averages and records for this station are not official NWS values.
T = Trace of Precipitation, MM = Missing Value Source: NWS Daily Summary

Daily Weather History Graph

Daily Weather History Graph

Search for Another Location

Airport or City:

Trip Planner

Search our weather history database for the weather conditions in past years. The results will help you decide how hot, cold, wet, or windy it might be!

Date:

Astronomy

Dec. 17, 2012 Rise Set
Actual Time 8:14 AM EST 4:56 PM EST
Civil Twilight 7:40 AM EST 5:31 PM EST
Nautical Twilight 7:02 AM EST 6:08 PM EST
Astronomical Twilight 6:26 AM EST 6:44 PM EST
Moon 11:10 AM EST (12/17) 10:31 PM EST (12/17)
Length of Visible Light 9h 50m
Length of Day
8h 42m
Waxing Crescent, 24% of the Moon is Illuminated
Dec 17
Waxing Crescent
Dec 20
First Quarter
Dec 28
Full
Jan 4
Last Quarter
Jan 11
New

Hourly Weather History & Observations

Time (EST) Temp. Windchill Dew Point Humidity Pressure Visibility Wind Dir Wind Speed Gust Speed Precip Events Conditions
12:37 AM 39.2 °F 33.6 °F 37.4 °F 93% 29.56 in 10.0 mi WNW 8.1 mph - 0.00 in   Overcast
1:54 AM 37.9 °F 34.4 °F 37.0 °F 97% 29.60 in 10.0 mi West 4.6 mph - N/A   Overcast
2:07 AM 37.4 °F 32.1 °F 37.4 °F 100% 29.58 in 10.0 mi West 6.9 mph - 0.00 in Rain Light Rain
2:26 AM 37.4 °F 34.9 °F 37.4 °F 100% 29.59 in 10.0 mi West 3.5 mph - 0.01 in Rain Light Rain
2:54 AM 37.9 °F 35.5 °F 36.0 °F 93% 29.62 in 10.0 mi West 3.5 mph - 0.01 in   Overcast
3:54 AM 37.9 °F - 37.0 °F 97% 29.62 in 10.0 mi Calm Calm - N/A   Overcast
4:54 AM 37.9 °F 35.5 °F 37.0 °F 97% 29.62 in 10.0 mi WNW 3.5 mph - 0.00 in   Overcast
5:01 AM 37.4 °F - 37.4 °F 100% 29.60 in 10.0 mi Calm Calm - N/A   Overcast
5:40 AM 37.4 °F - 35.6 °F 93% 29.60 in 10.0 mi Calm Calm - 0.00 in   Overcast
5:54 AM 37.9 °F - 36.0 °F 93% 29.62 in 10.0 mi Calm Calm - 0.00 in   Overcast
5:58 AM 37.4 °F - 35.6 °F 93% 29.60 in 10.0 mi Calm Calm - N/A   Overcast
6:31 AM 37.4 °F 34.9 °F 35.6 °F 93% 29.61 in 10.0 mi WNW 3.5 mph - N/A   Overcast
6:46 AM 35.6 °F 31.7 °F 35.6 °F 100% 29.61 in 10.0 mi West 4.6 mph - N/A   Overcast
6:54 AM 37.0 °F 34.5 °F 36.0 °F 96% 29.64 in 10.0 mi West 3.5 mph - N/A   Overcast
7:39 AM 37.4 °F 33.8 °F 35.6 °F 93% 29.63 in 10.0 mi West 4.6 mph - N/A   Overcast
7:50 AM 37.4 °F 32.8 °F 35.6 °F 93% 29.63 in 10.0 mi WNW 5.8 mph - N/A   Overcast
7:54 AM 37.0 °F 31.6 °F 36.0 °F 96% 29.65 in 10.0 mi WNW 6.9 mph - N/A   Overcast
8:11 AM 37.4 °F 31.4 °F 35.6 °F 93% 29.64 in 10.0 mi WNW 8.1 mph - N/A   Overcast
8:35 AM 37.4 °F 32.8 °F 33.8 °F 87% 29.64 in 10.0 mi West 5.8 mph - N/A   Overcast
8:54 AM 37.0 °F 31.0 °F 33.1 °F 86% 29.67 in 10.0 mi WNW 8.1 mph - N/A   Overcast
9:54 AM 36.0 °F 31.1 °F 34.0 °F 93% 29.69 in 9.0 mi West 5.8 mph - 0.00 in Rain Light Rain
10:40 AM 37.4 °F - 33.8 °F 87% 29.67 in 10.0 mi Calm Calm - 0.00 in   Overcast
10:54 AM 37.0 °F 31.6 °F 34.0 °F 89% 29.68 in 10.0 mi WNW 6.9 mph - 0.00 in   Overcast
11:54 AM 37.9 °F 33.5 °F 33.1 °F 83% 29.67 in 10.0 mi West 5.8 mph - N/A   Overcast
12:54 PM 37.0 °F 29.8 °F 33.1 °F 86% 29.65 in 10.0 mi WNW 10.4 mph - N/A   Overcast
1:54 PM 37.0 °F 31.0 °F 32.0 °F 82% 29.65 in 10.0 mi WNW 8.1 mph - N/A   Overcast
2:54 PM 37.0 °F 33.3 °F 32.0 °F 82% 29.66 in 10.0 mi NW 4.6 mph - 0.00 in   Overcast
3:01 PM 35.6 °F 30.7 °F 32.0 °F 87% 29.64 in 10.0 mi WNW 5.8 mph - N/A   Overcast
3:11 PM 35.6 °F 30.7 °F 32.0 °F 87% 29.64 in 10.0 mi WNW 5.8 mph - 0.00 in Rain Light Rain
3:47 PM 37.4 °F 29.8 °F 32.0 °F 81% 29.64 in 10.0 mi NW 11.5 mph - 0.00 in   Overcast
3:54 PM 37.0 °F 30.4 °F 32.0 °F 82% 29.66 in 10.0 mi NNW 9.2 mph - 0.00 in   Mostly Cloudy
4:54 PM 36.0 °F - 32.0 °F 86% 29.68 in 10.0 mi Calm Calm - N/A   Overcast
7:54 PM 30.9 °F - 30.0 °F 96% 29.69 in 10.0 mi Calm Calm - N/A   Mostly Cloudy
8:34 PM 28.4 °F - 28.4 °F 100% 29.67 in 9.0 mi Calm Calm - N/A   Mostly Cloudy
8:54 PM 30.0 °F - 28.9 °F 96% 29.69 in 10.0 mi Calm Calm - N/A   Overcast
9:54 PM 32.0 °F - 30.9 °F 96% 29.68 in 10.0 mi Calm Calm - N/A   Overcast
10:54 PM 33.1 °F - 32.0 °F 96% 29.69 in 10.0 mi Calm Calm - N/A   Overcast
11:54 PM 32.0 °F - 30.0 °F 92% 29.69 in 10.0 mi Calm Calm - N/A   Overcast